Date,TemperatureHighF,TemperatureAvgF,TemperatureLowF,DewpointHighF,DewpointAvgF,DewpointLowF,HumidityHigh,HumidityAvg,HumidityLow,PressureMaxIn,PressureMinIn,WindSpeedMaxMPH,WindSpeedAvgMPH,GustSpeedMaxMPH,PrecipitationSumIn
2013-9-1,93.8,73.8,55.1,55.4,48.6,31.2,78,47,11,29.80,29.61,9,2,15,0.00
2013-9-2,83.9,69.0,55.0,55.5,52.0,46.4,83,58,28,29.82,29.68,9,2,14,0.00
2013-9-3,85.0,67.0,50.9,55.2,51.0,40.4,92,61,22,29.90,29.80,10,2,12,0.00
2013-9-4,86.5,66.4,49.0,54.4,50.1,42.1,91,61,22,29.94,29.82,10,2,14,0.00
2013-9-5,73.4,59.8,50.8,53.4,49.5,45.3,91,70,43,30.01,29.79,23,4,25,0.00
2013-9-6,69.3,59.3,50.7,54.1,49.5,45.3,92,71,52,30.09,30.00,14,4,18,0.14
2013-9-7,75.7,60.9,43.4,54.8,49.7,42.0,95,69,40,30.08,29.92,10,2,18,0.00
2013-9-8,76.3,63.9,48.3,54.3,50.3,45.8,92,64,39,30.03,29.95,9,2,14,0.00
2013-9-9,83.7,68.7,50.1,50.2,46.5,43.3,80,50,26,30.00,29.84,9,2,11,0.00
2013-9-10,85.9,69.8,50.8,51.7,47.2,42.3,73,47,24,29.92,29.80,11,2,16,0.00
2013-9-11,87.9,71.7,52.0,53.0,48.4,43.7,74,46,25,29.96,29.84,11,2,17,0.00
2013-9-12,90.2,78.6,61.1,53.7,47.7,38.5,58,35,23,29.91,29.76,8,2,12,0.00
2013-9-13,83.4,71.3,56.3,52.1,45.6,38.4,60,41,27,29.82,29.69,6,0,8,0.00
2013-9-14,88.1,72.3,52.7,54.1,50.0,44.3,80,49,26,29.78,29.62,11,2,13,0.00
2013-9-15,92.5,71.1,55.6,57.0,49.0,35.7,77,50,14,29.74,29.49,18,3,28,0.01
2013-9-16,71.5,59.5,46.7,50.0,46.9,43.3,89,65,41,29.86,29.74,11,3,14,0.00
2013-9-17,62.6,54.5,48.2,51.6,44.9,40.3,85,71,47,29.95,29.76,17,3,21,0.01
2013-9-18,68.1,55.5,45.8,43.0,40.1,36.5,83,59,33,30.05,29.95,10,3,14,0.00
2013-9-19,75.7,57.2,36.8,44.0,38.6,32.6,85,54,27,30.03,29.78,13,5,15,0.00
2013-9-20,77.2,57.9,39.4,49.7,40.1,33.1,85,55,24,29.79,29.53,16,3,19,0.04
2013-9-21,67.4,55.7,47.1,47.6,43.7,40.8,80,65,39,29.73,29.61,13,3,16,0.04
2013-9-22,66.4,52.1,41.5,49.5,42.5,38.5,90,71,42,29.84,29.68,16,4,21,0.02
2013-9-23,63.2,54.6,45.0,45.5,42.1,38.1,81,63,48,29.95,29.83,18,5,18,0.00
2013-9-24,53.9,49.5,43.8,45.8,42.7,37.5,93,78,62,29.92,29.81,13,3,17,0.13
2013-9-25,55.8,45.9,38.6,43.5,38.2,35.1,88,75,56,29.98,29.80,10,3,13,0.11
2013-9-26,57.5,44.4,32.5,44.8,36.3,30.7,94,75,50,30.16,29.98,11,2,14,0.05
2013-9-27,61.9,47.6,35.0,47.7,38.9,31.2,92,73,36,30.17,29.98,13,2,16,0.03
2013-9-28,64.6,56.2,46.1,51.6,48.0,42.7,90,75,54,29.99,29.52,23,8,27,0.15
2013-9-29,55.0,49.1,43.8,49.7,43.0,38.4,92,80,60,29.71,29.47,22,6,23,0.31
2013-9-30,57.3,48.4,41.7,49.1,37.6,33.1,90,67,52,29.99,29.58,23,11,28,0.21